Time,TemperatureF,DewpointF,PressureIn,WindDirection,WindDirectionDegrees,WindSpeedMPH,WindSpeedGustMPH,Humidity,HourlyPrecipIn,Conditions,Clouds,dailyrainin,SoftwareType,DateUTC
2013-12-15 00:00:00,77.7,71.8,30.01,SE,143,5.0,6.0,82,0.00,,,0.00,Wunderground v.1.15,2013-12-15 05:00:00,
2013-12-15 00:10:00,77.5,71.6,30.01,South,176,5.0,6.0,82,0.00,,,0.00,Wunderground v.1.15,2013-12-15 05:10:00,
2013-12-15 00:20:00,77.4,71.8,30.01,SSE,168,5.0,5.0,83,0.00,,,0.00,Wunderground v.1.15,2013-12-15 05:20:00,
2013-12-15 00:30:00,77.4,71.8,30.00,SSE,163,5.0,5.0,83,0.00,,,0.00,Wunderground v.1.15,2013-12-15 05:30:00,
2013-12-15 00:40:00,77.4,71.8,30.00,South,173,5.0,5.0,83,0.00,,,0.00,Wunderground v.1.15,2013-12-15 05:40:00,
2013-12-15 00:50:00,77.3,71.7,30.00,South,183,4.0,4.0,83,0.00,,,0.00,Wunderground v.1.15,2013-12-15 05:50:00,
2013-12-15 01:00:00,77.1,71.5,29.99,SSE,155,4.0,5.0,83,0.00,,,0.00,Wunderground v.1.15,2013-12-15 06:00:00,
2013-12-15 01:10:00,77.0,71.4,30.00,SW,214,3.0,3.0,83,0.00,,,0.00,Wunderground v.1.15,2013-12-15 06:10:00,
2013-12-15 01:20:00,76.8,71.6,29.99,SSE,166,3.0,5.0,84,0.00,,,0.00,Wunderground v.1.15,2013-12-15 06:20:00,
2013-12-15 01:30:00,76.6,71.4,29.99,South,181,3.0,5.0,84,0.00,,,0.00,Wunderground v.1.15,2013-12-15 06:30:00,
2013-12-15 01:40:00,76.5,71.3,29.99,SE,133,4.0,4.0,84,0.00,,,0.00,Wunderground v.1.15,2013-12-15 06:40:00,
2013-12-15 01:50:00,76.4,71.6,29.99,South,188,3.0,5.0,85,0.00,,,0.00,Wunderground v.1.15,2013-12-15 06:50:00,
2013-12-15 02:00:00,76.2,71.4,29.99,SW,229,4.0,4.0,85,0.00,,,0.00,Wunderground v.1.15,2013-12-15 07:00:00,
2013-12-15 02:10:00,76.0,71.5,29.99,SSW,197,3.0,3.0,86,0.00,,,0.00,Wunderground v.1.15,2013-12-15 07:10:00,
2013-12-15 02:20:00,75.9,71.4,29.98,SSE,162,4.0,4.0,86,0.00,,,0.00,Wunderground v.1.15,2013-12-15 07:20:00,
2013-12-15 02:30:00,75.9,71.4,29.98,SW,217,4.0,4.0,86,0.00,,,0.00,Wunderground v.1.15,2013-12-15 07:30:00,
2013-12-15 02:40:00,75.8,71.3,29.98,SW,217,4.0,5.0,86,0.00,,,0.00,Wunderground v.1.15,2013-12-15 07:40:00,
2013-12-15 02:50:00,75.8,71.3,29.97,SSW,210,4.0,4.0,86,0.00,,,0.00,Wunderground v.1.15,2013-12-15 07:50:00,
2013-12-15 03:00:00,75.7,71.2,29.97,SW,214,4.0,5.0,86,0.00,,,0.00,Wunderground v.1.15,2013-12-15 08:00:00,
2013-12-15 03:10:00,75.6,71.1,29.97,South,170,4.0,4.0,86,0.00,,,0.00,Wunderground v.1.15,2013-12-15 08:10:00,
2013-12-15 03:20:00,75.5,71.0,29.97,SSE,162,4.0,6.0,86,0.00,,,0.00,Wunderground v.1.15,2013-12-15 08:20:00,
2013-12-15 03:30:00,75.5,71.0,29.97,SW,225,5.0,5.0,86,0.00,,,0.00,Wunderground v.1.15,2013-12-15 08:30:00,
2013-12-15 03:40:00,75.5,71.4,29.97,East,81,3.0,3.0,87,0.00,,,0.00,Wunderground v.1.15,2013-12-15 08:40:00,
2013-12-15 03:50:00,75.3,71.2,29.97,ESE,120,4.0,4.0,87,0.00,,,0.00,Wunderground v.1.15,2013-12-15 08:50:00,
2013-12-15 04:00:00,75.4,71.3,29.97,SW,225,4.0,4.0,87,0.00,,,0.00,Wunderground v.1.15,2013-12-15 09:00:00,
2013-12-15 04:10:00,75.3,71.5,29.97,SSW,207,3.0,4.0,88,0.00,,,0.00,Wunderground v.1.15,2013-12-15 09:10:00,
2013-12-15 04:20:00,75.3,71.5,29.97,West,266,3.0,5.0,88,0.00,,,0.00,Wunderground v.1.15,2013-12-15 09:20:00,
2013-12-15 04:30:00,75.2,71.4,29.96,SSE,150,3.0,3.0,88,0.00,,,0.00,Wunderground v.1.15,2013-12-15 09:30:00,
2013-12-15 04:40:00,75.2,71.4,29.96,ENE,68,3.0,4.0,88,0.00,,,0.00,Wunderground v.1.15,2013-12-15 09:40:00,
2013-12-15 04:50:00,75.1,71.6,29.96,SE,144,3.0,3.0,89,0.00,,,0.00,Wunderground v.1.15,2013-12-15 09:50:00,
2013-12-15 05:00:00,75.0,71.5,29.96,SSE,149,3.0,4.0,89,0.00,,,0.00,Wunderground v.1.15,2013-12-15 10:00:00,
2013-12-15 05:10:00,74.9,71.4,29.96,South,176,2.0,4.0,89,0.00,,,0.00,Wunderground v.1.15,2013-12-15 10:10:00,
2013-12-15 05:20:00,74.9,71.4,29.97,SW,218,3.0,3.0,89,0.00,,,0.00,Wunderground v.1.15,2013-12-15 10:20:00,
2013-12-15 05:30:00,74.7,71.6,29.97,SW,233,3.0,6.0,90,0.00,,,0.00,Wunderground v.1.15,2013-12-15 10:30:00,
2013-12-15 05:40:00,74.7,71.6,29.97,SSW,208,3.0,6.0,90,0.00,,,0.00,Wunderground v.1.15,2013-12-15 10:40:00,
2013-12-15 05:50:00,74.6,71.5,29.97,SW,217,2.0,3.0,90,0.00,,,0.00,Wunderground v.1.15,2013-12-15 10:50:00,
2013-12-15 06:00:00,74.5,71.4,29.97,SW,232,2.0,2.0,90,0.00,,,0.00,Wunderground v.1.15,2013-12-15 11:00:00,
2013-12-15 06:10:00,74.4,71.3,29.97,South,170,3.0,3.0,90,0.00,,,0.00,Wunderground v.1.15,2013-12-15 11:10:00,
2013-12-15 06:20:00,74.3,71.5,29.97,SSW,211,3.0,3.0,91,0.00,,,0.00,Wunderground v.1.15,2013-12-15 11:20:00,
2013-12-15 06:30:00,74.4,71.6,29.97,SSE,159,3.0,3.0,91,0.00,,,0.00,Wunderground v.1.15,2013-12-15 11:30:00,
2013-12-15 06:40:00,74.5,71.7,29.97,South,179,4.0,6.0,91,0.00,,,0.00,Wunderground v.1.15,2013-12-15 11:40:00,
2013-12-15 06:50:00,74.6,71.8,29.97,South,170,3.0,4.0,91,0.00,,,0.00,Wunderground v.1.15,2013-12-15 11:50:00,
2013-12-15 07:00:00,74.7,71.6,29.98,SSE,158,3.0,5.0,90,0.00,,,0.00,Wunderground v.1.15,2013-12-15 12:00:00,
2013-12-15 07:10:00,74.7,71.6,29.98,SE,139,2.0,4.0,90,0.00,,,0.00,Wunderground v.1.15,2013-12-15 12:10:00,
2013-12-15 07:20:00,74.7,71.6,29.98,SSW,197,2.0,3.0,90,0.00,,,0.00,Wunderground v.1.15,2013-12-15 12:20:00,
2013-12-15 07:30:00,74.8,71.7,29.98,South,179,2.0,2.0,90,0.00,,,0.00,Wunderground v.1.15,2013-12-15 12:30:00,
2013-12-15 07:40:00,74.9,71.8,29.99,SW,228,2.0,2.0,90,0.00,,,0.00,Wunderground v.1.15,2013-12-15 12:40:00,
2013-12-15 07:50:00,75.1,72.0,29.99,SSE,166,2.0,3.0,90,0.00,,,0.00,Wunderground v.1.15,2013-12-15 12:50:00,
2013-12-15 08:00:00,75.3,72.2,29.99,SSW,211,2.0,2.0,90,0.00,,,0.00,Wunderground v.1.15,2013-12-15 13:00:00,
2013-12-15 08:10:00,75.6,72.1,30.00,SE,137,2.0,2.0,89,0.00,,,0.00,Wunderground v.1.15,2013-12-15 13:10:00,
2013-12-15 08:20:00,76.0,72.5,30.00,WSW,243,3.0,3.0,89,0.00,,,0.00,Wunderground v.1.15,2013-12-15 13:20:00,
2013-12-15 08:30:00,76.3,72.5,30.01,SW,218,3.0,9.0,88,0.00,,,0.00,Wunderground v.1.15,2013-12-15 13:30:00,
2013-12-15 08:40:00,76.8,73.0,30.01,South,174,3.0,3.0,88,0.00,,,0.00,Wunderground v.1.15,2013-12-15 13:40:00,
2013-12-15 08:50:00,77.2,73.0,30.02,SW,222,4.0,4.0,87,0.00,,,0.00,Wunderground v.1.15,2013-12-15 13:50:00,
2013-12-15 09:00:00,78.0,73.5,30.03,South,191,3.0,3.0,86,0.00,,,0.00,Wunderground v.1.15,2013-12-15 14:00:00,
2013-12-15 09:10:00,78.6,73.7,30.02,SW,231,4.0,6.0,85,0.00,,,0.00,Wunderground v.1.15,2013-12-15 14:10:00,
2013-12-15 09:20:00,79.3,73.7,30.02,SW,226,5.0,7.0,83,0.00,,,0.00,Wunderground v.1.15,2013-12-15 14:20:00,
2013-12-15 09:30:00,79.9,73.9,30.02,SW,218,5.0,8.0,82,0.00,,,0.00,Wunderground v.1.15,2013-12-15 14:30:00,
2013-12-15 09:40:00,80.6,73.9,30.03,East,92,5.0,5.0,80,0.00,,,0.00,Wunderground v.1.15,2013-12-15 14:40:00,
2013-12-15 09:50:00,80.6,73.9,30.03,SW,236,5.0,5.0,80,0.00,,,0.00,Wunderground v.1.15,2013-12-15 14:50:00,
2013-12-15 10:00:00,81.1,74.0,30.03,WSW,240,6.0,11.0,79,0.00,,,0.00,Wunderground v.1.15,2013-12-15 15:00:00,
2013-12-15 10:10:00,81.2,73.7,30.03,SSW,201,5.0,5.0,78,0.00,,,0.00,Wunderground v.1.15,2013-12-15 15:10:00,
2013-12-15 10:20:00,81.0,73.5,30.03,SW,233,6.0,12.0,78,0.00,,,0.00,Wunderground v.1.15,2013-12-15 15:20:00,
2013-12-15 10:30:00,81.1,74.0,30.03,West,270,6.0,6.0,79,0.00,,,0.00,Wunderground v.1.15,2013-12-15 15:30:00,
2013-12-15 10:40:00,81.4,73.9,30.02,East,91,6.0,6.0,78,0.00,,,0.00,Wunderground v.1.15,2013-12-15 15:40:00,
2013-12-15 10:50:00,81.6,73.7,30.02,SE,138,7.0,7.0,77,0.00,,,0.00,Wunderground v.1.15,2013-12-15 15:50:00,
2013-12-15 11:00:00,81.7,73.4,30.01,West,260,6.0,6.0,76,0.00,,,0.00,Wunderground v.1.15,2013-12-15 16:00:00,
2013-12-15 11:10:00,82.3,74.0,30.01,South,180,4.0,4.0,76,0.00,,,0.00,Wunderground v.1.15,2013-12-15 16:10:00,
2013-12-15 11:20:00,82.2,73.5,30.01,SW,226,5.0,9.0,75,0.00,,,0.00,Wunderground v.1.15,2013-12-15 16:20:00,
2013-12-15 11:30:00,82.3,73.2,30.01,SW,217,6.0,6.0,74,0.00,,,0.00,Wunderground v.1.15,2013-12-15 16:30:00,
2013-12-15 11:40:00,83.0,73.4,30.00,SSW,208,7.0,7.0,73,0.00,,,0.00,Wunderground v.1.15,2013-12-15 16:40:00,
2013-12-15 11:50:00,84.1,73.3,30.00,SSW,206,6.0,10.0,70,0.00,,,0.00,Wunderground v.1.15,2013-12-15 16:50:00,
2013-12-15 12:00:00,83.5,72.7,29.99,ESE,121,7.0,7.0,70,0.00,,,0.00,Wunderground v.1.15,2013-12-15 17:00:00,
2013-12-15 12:10:00,83.3,72.9,29.99,West,275,7.0,8.0,71,0.00,,,0.00,Wunderground v.1.15,2013-12-15 17:10:00,
2013-12-15 12:20:00,82.9,72.5,29.99,WSW,247,6.0,6.0,71,0.00,,,0.00,Wunderground v.1.15,2013-12-15 17:20:00,
2013-12-15 12:30:00,83.0,72.2,29.98,ESE,113,7.0,7.0,70,0.00,,,0.00,Wunderground v.1.15,2013-12-15 17:30:00,
2013-12-15 12:40:00,83.2,72.4,29.98,South,173,6.0,6.0,70,0.00,,,0.00,Wunderground v.1.15,2013-12-15 17:40:00,
2013-12-15 12:50:00,83.1,71.9,29.97,SW,235,6.0,10.0,69,0.00,,,0.00,Wunderground v.1.15,2013-12-15 17:50:00,
2013-12-15 13:00:00,82.9,71.7,29.96,SSW,204,6.0,8.0,69,0.00,,,0.00,Wunderground v.1.15,2013-12-15 18:00:00,
2013-12-15 13:10:00,82.9,72.1,29.95,West,261,7.0,7.0,70,0.00,,,0.00,Wunderground v.1.15,2013-12-15 18:10:00,
2013-12-15 13:20:00,82.7,71.9,29.95,West,264,6.0,8.0,70,0.00,,,0.00,Wunderground v.1.15,2013-12-15 18:20:00,
2013-12-15 13:30:00,82.8,72.0,29.95,West,270,6.0,6.0,70,0.00,,,0.00,Wunderground v.1.15,2013-12-15 18:30:00,
2013-12-15 13:40:00,82.9,72.5,29.95,NW,323,6.0,6.0,71,0.00,,,0.00,Wunderground v.1.15,2013-12-15 18:40:00,
2013-12-15 13:50:00,83.0,72.2,29.95,WSW,239,6.0,8.0,70,0.00,,,0.00,Wunderground v.1.15,2013-12-15 18:50:00,
2013-12-15 14:00:00,82.8,72.0,29.95,West,276,5.0,8.0,70,0.00,,,0.00,Wunderground v.1.15,2013-12-15 19:00:00,
2013-12-15 14:10:00,81.5,72.8,29.96,West,273,6.0,6.0,75,2.74,,,0.15,Wunderground v.1.15,2013-12-15 19:10:00,
2013-12-15 14:20:00,79.7,73.0,29.95,WSW,248,5.0,8.0,80,0.10,,,0.18,Wunderground v.1.15,2013-12-15 19:20:00,
2013-12-15 14:30:00,78.9,72.2,29.95,West,276,7.0,13.0,80,0.04,,,0.18,Wunderground v.1.15,2013-12-15 19:30:00,
2013-12-15 14:40:00,78.3,71.2,29.94,West,281,7.0,7.0,79,0.00,,,0.18,Wunderground v.1.15,2013-12-15 19:40:00,
2013-12-15 14:50:00,78.0,71.3,29.95,WNW,299,7.0,7.0,80,0.00,,,0.18,Wunderground v.1.15,2013-12-15 19:50:00,
2013-12-15 15:00:00,77.9,71.2,29.95,West,262,6.0,6.0,80,0.00,,,0.18,Wunderground v.1.15,2013-12-15 20:00:00,
2013-12-15 15:10:00,77.7,70.7,29.95,NW,320,5.0,5.0,79,0.00,,,0.18,Wunderground v.1.15,2013-12-15 20:10:00,
2013-12-15 15:20:00,77.7,70.7,29.96,WNW,297,4.0,5.0,79,0.00,,,0.18,Wunderground v.1.15,2013-12-15 20:20:00,
2013-12-15 15:30:00,78.1,71.1,29.95,West,273,5.0,5.0,79,0.00,,,0.18,Wunderground v.1.15,2013-12-15 20:30:00,
2013-12-15 15:40:00,79.2,71.4,29.95,WNW,285,4.0,5.0,77,0.00,,,0.18,Wunderground v.1.15,2013-12-15 20:40:00,
2013-12-15 15:50:00,79.3,71.1,29.95,WSW,249,4.0,4.0,76,0.00,,,0.18,Wunderground v.1.15,2013-12-15 20:50:00,
2013-12-15 16:00:00,78.9,71.1,29.96,WNW,290,6.0,6.0,77,0.00,,,0.18,Wunderground v.1.15,2013-12-15 21:00:00,
2013-12-15 16:10:00,79.3,71.1,29.96,NW,311,5.0,5.0,76,0.00,,,0.18,Wunderground v.1.15,2013-12-15 21:10:00,
2013-12-15 16:20:00,79.0,70.4,29.96,WNW,293,5.0,8.0,75,0.00,,,0.18,Wunderground v.1.15,2013-12-15 21:20:00,
2013-12-15 16:30:00,78.5,70.3,29.96,NW,311,6.0,9.0,76,0.00,,,0.18,Wunderground v.1.15,2013-12-15 21:30:00,
2013-12-15 16:40:00,78.1,70.7,29.96,West,276,5.0,7.0,78,0.00,,,0.18,Wunderground v.1.15,2013-12-15 21:40:00,
2013-12-15 16:50:00,78.1,71.1,29.96,West,273,4.0,4.0,79,0.00,,,0.18,Wunderground v.1.15,2013-12-15 21:50:00,
2013-12-15 17:00:00,78.3,70.9,29.97,WNW,289,3.0,5.0,78,0.00,,,0.18,Wunderground v.1.15,2013-12-15 22:00:00,
2013-12-15 17:10:00,77.9,70.9,29.97,WNW,293,4.0,5.0,79,0.00,,,0.18,Wunderground v.1.15,2013-12-15 22:10:00,
2013-12-15 17:20:00,77.7,70.7,29.97,WNW,283,4.0,4.0,79,0.00,,,0.18,Wunderground v.1.15,2013-12-15 22:20:00,
2013-12-15 17:30:00,77.6,70.6,29.97,WNW,294,3.0,6.0,79,0.00,,,0.18,Wunderground v.1.15,2013-12-15 22:30:00,
2013-12-15 17:40:00,77.6,70.6,29.97,SW,225,5.0,5.0,79,0.00,,,0.18,Wunderground v.1.15,2013-12-15 22:40:00,
2013-12-15 17:50:00,77.5,70.5,29.98,WNW,283,4.0,4.0,79,0.00,,,0.18,Wunderground v.1.15,2013-12-15 22:50:00,
2013-12-15 18:10:00,77.2,70.5,29.99,WNW,284,4.0,4.0,80,0.00,,,0.18,Wunderground v.1.15,2013-12-15 23:10:00,
2013-12-15 18:20:00,77.0,70.4,29.99,WSW,238,3.0,3.0,80,0.00,,,0.18,Wunderground v.1.15,2013-12-15 23:20:00,
2013-12-15 18:30:00,76.7,70.4,30.00,WNW,283,2.0,2.0,81,0.00,,,0.18,Wunderground v.1.15,2013-12-15 23:30:00,
2013-12-15 18:40:00,76.4,70.1,30.00,WNW,285,2.0,2.0,81,0.00,,,0.18,Wunderground v.1.15,2013-12-15 23:40:00,
2013-12-15 18:50:00,76.3,70.0,30.01,West,281,2.0,2.0,81,0.00,,,0.18,Wunderground v.1.15,2013-12-15 23:50:00,
2013-12-15 19:00:00,76.3,70.4,30.01,NW,307,2.0,2.0,82,0.00,,,0.18,Wunderground v.1.15,2013-12-16 00:00:00,
2013-12-15 19:10:00,76.3,70.4,30.02,WSW,239,2.0,2.0,82,0.00,,,0.18,Wunderground v.1.15,2013-12-16 00:10:00,
2013-12-15 19:20:00,76.4,70.1,30.02,WNW,284,3.0,3.0,81,0.00,,,0.18,Wunderground v.1.15,2013-12-16 00:20:00,
2013-12-15 19:30:00,76.4,70.1,30.02,NW,311,2.0,3.0,81,0.00,,,0.18,Wunderground v.1.15,2013-12-16 00:30:00,
2013-12-15 19:40:00,76.1,70.2,30.02,NNW,335,3.0,3.0,82,0.00,,,0.18,Wunderground v.1.15,2013-12-16 00:40:00,
2013-12-15 19:50:00,75.7,69.8,30.03,WNW,297,2.0,4.0,82,0.00,,,0.18,Wunderground v.1.15,2013-12-16 00:50:00,
2013-12-15 20:00:00,75.3,69.8,30.03,WNW,297,2.0,2.0,83,0.00,,,0.18,Wunderground v.1.15,2013-12-16 01:00:00,
2013-12-15 20:10:00,74.9,69.7,30.03,NW,314,1.0,1.0,84,0.00,,,0.18,Wunderground v.1.15,2013-12-16 01:10:00,
2013-12-15 20:20:00,74.6,69.8,30.04,NW,305,1.0,2.0,85,0.00,,,0.18,Wunderground v.1.15,2013-12-16 01:20:00,
2013-12-15 20:30:00,74.3,69.5,30.04,NW,311,1.0,2.0,85,0.00,,,0.18,Wunderground v.1.15,2013-12-16 01:30:00,
2013-12-15 20:40:00,74.2,69.7,30.04,WNW,302,1.0,1.0,86,0.00,,,0.18,Wunderground v.1.15,2013-12-16 01:40:00,
2013-12-15 20:50:00,74.1,69.6,30.05,WNW,290,1.0,1.0,86,0.00,,,0.18,Wunderground v.1.15,2013-12-16 01:50:00,
2013-12-15 21:00:00,74.0,69.9,30.05,WNW,293,1.0,1.0,87,0.00,,,0.18,Wunderground v.1.15,2013-12-16 02:00:00,
2013-12-15 21:10:00,73.6,69.5,30.06,North,352,1.0,2.0,87,0.00,,,0.18,Wunderground v.1.15,2013-12-16 02:10:00,
2013-12-15 21:20:00,73.3,69.5,30.06,NNW,348,1.0,1.0,88,0.00,,,0.18,Wunderground v.1.15,2013-12-16 02:20:00,
2013-12-15 21:30:00,73.2,69.4,30.06,NNW,334,1.0,1.0,88,0.00,,,0.18,Wunderground v.1.15,2013-12-16 02:30:00,
2013-12-15 21:40:00,73.2,69.8,30.07,NW,308,1.0,3.0,89,0.00,,,0.18,Wunderground v.1.15,2013-12-16 02:40:00,
2013-12-15 21:50:00,73.5,70.1,30.07,NW,326,2.0,3.0,89,0.00,,,0.18,Wunderground v.1.15,2013-12-16 02:50:00,
2013-12-15 22:00:00,73.2,69.4,30.07,North,6,2.0,2.0,88,0.00,,,0.18,Wunderground v.1.15,2013-12-16 03:00:00,
2013-12-15 22:10:00,72.8,69.0,30.06,North,11,1.0,2.0,88,0.00,,,0.18,Wunderground v.1.15,2013-12-16 03:10:00,
2013-12-15 22:20:00,72.6,68.8,30.06,NNW,334,1.0,1.0,88,0.00,,,0.18,Wunderground v.1.15,2013-12-16 03:20:00,
2013-12-15 22:30:00,72.3,68.5,30.07,NW,321,1.0,2.0,88,0.00,,,0.18,Wunderground v.1.15,2013-12-16 03:30:00,
2013-12-15 22:40:00,72.0,68.6,30.07,NNW,338,1.0,1.0,89,0.00,,,0.18,Wunderground v.1.15,2013-12-16 03:40:00,
2013-12-15 22:50:00,71.8,68.4,30.07,North,350,2.0,4.0,89,0.00,,,0.18,Wunderground v.1.15,2013-12-16 03:50:00,
2013-12-15 23:00:00,71.7,68.3,30.07,NNW,330,3.0,5.0,89,0.00,,,0.18,Wunderground v.1.15,2013-12-16 04:00:00,
2013-12-15 23:10:00,71.6,68.2,30.07,NW,312,3.0,3.0,89,0.00,,,0.18,Wunderground v.1.15,2013-12-16 04:10:00,
2013-12-15 23:20:00,71.4,68.0,30.07,NNW,330,3.0,6.0,89,0.00,,,0.18,Wunderground v.1.15,2013-12-16 04:20:00,
2013-12-15 23:30:00,71.3,67.9,30.07,North,350,3.0,4.0,89,0.00,,,0.18,Wunderground v.1.15,2013-12-16 04:30:00,
2013-12-15 23:40:00,71.1,67.4,30.07,NW,316,3.0,3.0,88,0.00,,,0.18,Wunderground v.1.15,2013-12-16 04:40:00,
2013-12-15 23:50:00,71.0,67.3,30.07,NNW,332,3.0,3.0,88,0.00,,,0.18,Wunderground v.1.15,2013-12-16 04:50:00,